User: anonymous   Login
Location: Poprad
(49.0500°N, 20.3000°E)
Time: 22:36:56
(UTC+02:00)
Language:

ISS - Orbit

View from above orbital plane
View from above orbital plane
View from above satellite
View from above satellite

Ground track
Ground track

The orbit data is extracted from the following two-line orbital elements,

1 25544U 98067A   19287.67170111  .00000065  00000-0  91496-5 0  9996
2 25544  51.6425 128.7807 0007254 147.3614 324.1604 15.50196613193798
Epoch (UTC): 14 October 2019 16:07:14
Eccentricity: 0.0007254
inclination: 51.6425°
perigee height: 411 km
apogee height: 421 km
right ascension of ascending node: 128.7807°
argument of perigee: 147.3614°
revolutions per day: 15.50196613
mean anomaly at epoch: 324.1604°
orbit number at epoch: 19379

The dashed part of the orbit path shows where the satellite is in the earth's shadow,  

DLR